| time (UTC) | temp F | wind direction | speed knots | gust knots | rain 1hr in | rain 24hr in | rain mn in | humidity % | barometer mb |
| 20260831053739 | 78 | 78 | 1.7 | 4.3 | 0.00 | 0.01 | 0.01 | 43 | |
| 20260831052238 | 78 | 150 | 1.7 | 5.2 | 0.00 | 0.01 | 0.01 | 38 | |
| 20260831050736 | 78 | 40 | 0.9 | 5.2 | 0.00 | 0.01 | 0.01 | 39 | |
| 20260831045236 | 77 | 50 | 1.7 | 5.2 | 0.00 | 0.01 | 0.01 | 41 | |
| 20260831043735 | 77 | 268 | 0.9 | 5.2 | 0.00 | 0.01 | 0.01 | 41 | |
| 20260831042235 | 76 | 127 | 1.7 | 5.2 | 0.00 | 0.01 | 0.01 | 41 | |
| 20260831040734 | 77 | 78 | 0.9 | 4.3 | 0.00 | 0.01 | 0.01 | 42 | |
| 20260831035235 | 76 | 142 | 0.9 | 6.1 | 0.00 | 0.01 | 0.01 | 42 | |
| 20260831033734 | 75 | 329 | 1.7 | 5.2 | 0.00 | 0.01 | 0.01 | 45 | |
| 20260831032234 | 75 | 29 | 1.7 | 5.2 | 0.00 | 0.01 | 0.01 | 44 | |
| 20260831030735 | 74 | 330 | 2.6 | 5.2 | 0.00 | 0.01 | 0.01 | 45 | |
| 20260831025235 | 73 | 350 | 1.7 | 5.2 | 0.00 | 0.01 | 0.01 | 48 | |
| 20260831023734 | 73 | 34 | 0.9 | 4.3 | 0.00 | 0.01 | 0.01 | 49 | |
| 20260831022234 | 72 | 43 | 2.6 | 4.3 | 0.00 | 0.01 | 0.01 | 51 | |
| 20260831020734 | 72 | 170 | 0.9 | 4.3 | 0.00 | 0.01 | 0.01 | 54 | |
| 20260831015235 | 70 | 342 | 0.9 | 3.5 | 0.00 | 0.01 | 0.01 | 55 | |
| 20260831013734 | 69 | 195 | 0.9 | 4.3 | 0.00 | 0.01 | 0.01 | 56 | |
| 20260831012232 | 68 | 31 | 0.9 | 4.3 | 0.00 | 0.01 | 0.01 | 59 | |
| 20260831010730 | 68 | 11 | 0.9 | 3.5 | 0.00 | 0.01 | 0.01 | 61 | |
| 20260831005230 | 66 | 12 | 0.9 | 4.3 | 0.00 | 0.01 | 0.01 | 63 | |
| 20260831003727 | 65 | 44 | 1.7 | 4.3 | 0.00 | 0.01 | 0.01 | 64 | |
| 20260831002224 | 64 | 125 | 0.9 | 4.3 | 0.00 | 0.01 | 0.01 | 67 | |
| 20260831000724 | 63 | 43 | 0.9 | 4.3 | 0.00 | 0.01 | 0.01 | 69 | |
| 20260830235224 | 61 | 17 | 0.9 | 4.3 | 0.00 | 0.01 | 0.01 | 72 | |
| 20260830233724 | 60 | 41 | 0.9 | 4.3 | 0.00 | 0.01 | 0.01 | 74 | |
| 20260830232224 | 59 | 346 | 0.9 | 2.6 | 0.00 | 0.01 | 0.01 | 77 | |
| 20260830230724 | 57 | 77 | 0.0 | 2.6 | 0.00 | 0.01 | 0.01 | 79 | |
| 20260830225224 | 56 | 0 | 1.7 | 3.5 | 0.00 | 0.01 | 0.01 | 81 | |
| 20260830223725 | 55 | 26 | 0.9 | 2.6 | 0.00 | 0.01 | 0.01 | 83 | |
| 20260830222224 | 53 | 16 | 0.9 | 2.6 | 0.00 | 0.01 | 0.01 | 86 | |
| 20260830220722 | 52 | 8 | 0.9 | 2.6 | 0.00 | 0.01 | 0.01 | 92 | |
| 20260830215218 | 50 | 43 | 1.7 | 3.5 | 0.00 | 0.01 | 0.01 | 95 | |
| 20260830213713 | 49 | 50 | 0.0 | 2.6 | 0.00 | 0.01 | 0.01 | 97 | |
| 20260830212210 | 47 | 51 | 0.9 | 1.7 | 0.00 | 0.01 | 0.01 | 97 | |
| 20260830210711 | 46 | 57 | 0.9 | 2.6 | 0.00 | 0.01 | 0.01 | 97 | |
| 20260830205207 | 45 | 41 | 0.9 | 1.7 | 0.00 | 0.01 | 0.01 | 98 | |
| 20260830203705 | 44 | 60 | 0.0 | 0.9 | 0.00 | 0.01 | 0.01 | 97 | |
| 20260830202205 | 43 | 61 | 0.0 | 0.9 | 0.00 | 0.01 | 0.01 | 97 | |
| 20260830200702 | 43 | 121 | 0.0 | 0.9 | 0.01 | 0.01 | 0.01 | 97 | |
| 20260830195202 | 43 | 130 | 0.0 | 1.7 | 0.01 | 0.01 | 0.01 | 96 | |
| 20260830193702 | 44 | 65 | 0.9 | 1.7 | 0.01 | 0.01 | 0.01 | 97 | |
| 20260830192202 | 44 | 40 | 0.9 | 1.7 | 0.01 | 0.01 | 0.01 | 97 | |
| 20260830190700 | 43 | 79 | 0.9 | 1.7 | 0.00 | 0.00 | 0.00 | 96 | |
| 20260830185200 | 44 | 44 | 0.9 | 1.7 | 0.00 | 0.00 | 0.00 | 96 | |
| 20260830183700 | 43 | 55 | 0.9 | 1.7 | 0.00 | 0.00 | 0.00 | 96 | |
| 20260830182200 | 44 | 59 | 0.0 | 1.7 | 0.00 | 0.00 | 0.00 | 96 | |
| 20260830180700 | 44 | 66 | 0.9 | 1.7 | 0.00 | 0.00 | 0.00 | 96 | |
| 20260830175200 | 44 | 64 | 0.0 | 2.6 | 0.00 | 0.00 | 0.00 | 96 | |
| 20260830173659 | 44 | 43 | 0.9 | 2.6 | 0.00 | 0.00 | 0.00 | 95 | |
| 20260830172159 | 45 | 59 | 0.0 | 0.9 | 0.00 | 0.00 | 0.00 | 95 | |
| 20260830170655 | 45 | 89 | 0.0 | 0.0 | 0.00 | 0.00 | 0.00 | 96 | |
| 20260830165153 | 46 | 89 | 0.0 | 0.9 | 0.00 | 0.00 | 0.00 | 95 | |
| 20260830163654 | 46 | 89 | 0.0 | 0.9 | 0.00 | 0.00 | 0.00 | 95 | |
| 20260830162151 | 46 | 89 | 0.0 | 0.9 | 0.00 | 0.00 | 0.00 | 95 | |
| 20260830160650 | 46 | 43 | 0.0 | 0.9 | 0.00 | 0.00 | 0.00 | 95 | |
| 20260830155148 | 47 | 65 | 0.0 | 0.0 | 0.00 | 0.00 | 0.00 | 94 | |
| 20260830153647 | 47 | 65 | 0.0 | 0.0 | 0.00 | 0.00 | 0.00 | 94 | |
| 20260830152146 | 48 | 65 | 0.0 | 0.9 | 0.00 | 0.00 | 0.00 | 94 | |
| 20260830150644 | 48 | 65 | 0.0 | 0.9 | 0.00 | 0.00 | 0.00 | 94 | |
| 20260830145142 | 48 | 39 | 0.0 | 0.9 | 0.00 | 0.00 | 0.00 | 94 | |
| 20260830143642 | 49 | 39 | 0.0 | 0.9 | 0.00 | 0.00 | 0.00 | 94 | |
| 20260830142154 | 49 | 52 | 0.0 | 1.7 | 0.00 | 0.00 | 0.00 | 93 | |
| 20260830140642 | 49 | 48 | 0.0 | 0.0 | 0.00 | 0.00 | 0.00 | 93 | |
| 20260830135154 | 49 | 48 | 0.0 | 0.0 | 0.00 | 0.00 | 0.00 | 92 | |
| 20260830133654 | 49 | 48 | 0.0 | 0.0 | 0.00 | 0.00 | 0.00 | 91 | |
| 20260830132141 | 50 | 48 | 0.0 | 0.9 | 0.00 | 0.00 | 0.00 | 91 | |
| 20260830130653 | 50 | 48 | 0.0 | 0.0 | 0.00 | 0.00 | 0.00 | 91 | |
| 20260830125153 | 51 | 48 | 0.0 | 0.9 | 0.00 | 0.00 | 0.00 | 90 | |
| 20260830123654 | 52 | 48 | 0.0 | 1.7 | 0.00 | 0.00 | 0.00 | 90 | |
| 20260830122142 | 52 | 318 | 0.0 | 1.7 | 0.00 | 0.00 | 0.00 | 90 | |
| 20260830120653 | 52 | 347 | 0.0 | 0.0 | 0.00 | 0.00 | 0.00 | 89 | |
| 20260830115151 | 53 | 34 | 0.0 | 0.0 | 0.00 | 0.00 | 0.00 | 87 | |
| 20260830113651 | 53 | 31 | 0.0 | 0.0 | 0.00 | 0.00 | 0.00 | 88 | |
| 20260830112147 | 54 | 31 | 0.0 | 0.0 | 0.00 | 0.00 | 0.00 | 87 | |
| 20260830110647 | 54 | 31 | 0.0 | 0.0 | 0.00 | 0.00 | 0.00 | 85 | |
| 20260830105136 | 55 | 31 | 0.0 | 0.9 | 0.00 | 0.00 | 0.00 | 84 | |
| 20260830103645 | 56 | 31 | 0.0 | 0.0 | 0.00 | 0.00 | 0.00 | 82 | |
| 20260830102134 | 57 | 31 | 0.0 | 0.9 | 0.00 | 0.00 | 0.00 | 81 | |
| 20260830100633 | 58 | 31 | 0.0 | 0.9 | 0.00 | 0.00 | 0.00 | 80 | |
| 20260830095142 | 59 | 31 | 0.0 | 0.0 | 0.00 | 0.00 | 0.00 | 77 | |
| 20260830093632 | 60 | 31 | 0.0 | 0.9 | 0.00 | 0.00 | 0.00 | 76 | |
| 20260830092129 | 61 | 65 | 0.0 | 0.9 | 0.00 | 0.00 | 0.00 | 74 | |
| 20260830090628 | 62 | 65 | 0.9 | 1.7 | 0.00 | 0.00 | 0.00 | 72 | |
| 20260830085138 | 63 | 68 | 0.9 | 1.7 | 0.00 | 0.00 | 0.00 | 70 | |
| 20260830083634 | 64 | 83 | 0.0 | 1.7 | 0.00 | 0.00 | 0.00 | 67 | |
| 20260830082134 | 65 | 68 | 0.9 | 1.7 | 0.00 | 0.00 | 0.00 | 63 | |
| 20260830080629 | 66 | 40 | 0.9 | 3.5 | 0.00 | 0.00 | 0.00 | 60 | |
| 20260830075129 | 68 | 109 | 0.9 | 3.5 | 0.00 | 0.00 | 0.00 | 53 | |
| 20260830073628 | 70 | 96 | 0.9 | 2.6 | 0.00 | 0.00 | 0.00 | 42 | |
| 20260830072128 | 71 | 112 | 0.0 | 2.6 | 0.00 | 0.00 | 0.00 | 38 | |
| 20260830070629 | 72 | 121 | 0.9 | 3.5 | 0.00 | 0.00 | 0.00 | 36 | |
| 20260830065128 | 73 | 125 | 0.9 | 4.3 | 0.00 | 0.00 | 0.00 | 37 | |
| 20260830063622 | 74 | 83 | 0.9 | 4.3 | 0.00 | 0.00 | 0.00 | 38 | |
| 20260830062123 | 74 | 112 | 0.9 | 4.3 | 0.00 | 0.00 | 0.00 | 37 | |
| 20260830060621 | 75 | 104 | 0.0 | 5.2 | 0.00 | 0.00 | 0.00 | 37 | |
| 20260830055121 | 74 | 82 | 1.7 | 5.2 | 0.00 | 0.00 | 0.00 | 36 |